[[{"header":{"parameterUnit":"m.s-1","parameterCategory":1,"la1":30.2991,"la2":30.254,"lo1":-89.0895,"lo2":-89.0444,"dy":0.0017,"dx":0.0017,"nx":28,"ny":28,"refTime":"2023-08-03T09:00:00:Z","depth":0,"parameterNumber":2,"parameterNumberName":"U-component_of_WINDS"},"data":[0,0,0,0,0,0,0,0,0,0,0,0,0,0,0,0,0,0,0,0,0,0,0,0,0,0,0,0,0,0,0,0,0,0,0,0,0,0,0,0,0,0,0,0,0,0,0,0,0,0,0,0,0,0,0,0,0,0,1.8423,1.8423,0,1.8442,1.8442,1.8442,1.8406,1.8404,1.8403,1.8402,1.842,1.8422,1.8423,0,0,0,0,0,0,0,0,0,0,0,0,0,1.8354,1.8355,1.8423,1.8423,1.8424,1.8442,1.8442,1.8442,1.8406,1.8404,1.8403,1.8402,1.842,1.8422,1.8424,0,0,0,0,0,0,0,0,0,0,0,0,0,1.8379,1.8356,1.8423,1.8408,1.8406,1.8442,1.8442,1.8442,1.8406,1.8404,1.8403,1.8401,1.8419,1.8421,1.8424,1.8474,0,0,1.8431,1.8432,0,0,0,0,0,0,0,0,1.8378,1.8382,1.841,1.8409,1.8407,1.842,1.8424,1.8453,1.8407,1.8406,1.8402,1.84,1.8421,1.8423,1.8431,1.8475,1.8476,1.8431,1.8433,1.8434,1.8434,0,0,0,0,0,0,0,1.8376,1.8381,1.843,1.841,1.8409,1.8399,1.8401,1.8429,1.8424,1.8406,1.8404,1.8406,1.842,1.8429,1.8431,1.8476,1.8431,1.8433,1.8435,1.8436,1.8561,1.8562,0,0,0,0,0,0,1.8377,1.838,1.843,1.8431,1.8388,1.8402,1.8404,1.8417,1.8423,1.8422,1.8408,1.8405,1.8425,1.8428,1.8432,1.8489,1.8434,1.8436,1.8437,1.8559,1.8561,1.8563,0,0,0,0,0,0,1.8375,1.8381,1.8429,1.8405,1.841,1.8405,1.8421,1.8419,1.8427,1.8424,1.8423,1.8417,1.8424,1.8428,1.8464,1.849,1.8437,1.8439,1.8557,1.8559,1.8562,1.8607,0,0,0,0,0,0,1.8373,1.8381,1.8401,1.8405,1.8411,1.8462,1.8422,1.842,1.8431,1.8427,1.8433,1.8432,1.8423,1.846,1.8466,1.8492,1.8441,1.8554,1.8558,1.8561,1.8603,1.8611,1.8618,0,0,0,0,0,1.8371,1.8413,1.8402,1.8409,1.8436,1.8463,1.8467,1.8455,1.8434,1.8453,1.8451,1.8432,1.8486,1.8464,1.847,1.8497,1.8552,1.8557,1.8561,1.86,1.8609,1.8617,0,0,0,0,0,0,1.8413,1.8414,1.8401,1.8446,1.8455,1.8457,1.8481,1.8466,1.8481,1.8476,1.8461,1.8463,1.8501,1.8503,1.8478,1.8546,1.8515,1.8521,1.8543,1.8552,1.8559,1.8557,1.8443,0,0,0,0,0,1.8427,1.8449,1.8449,1.8488,1.8493,1.8487,1.8498,1.8488,1.8496,1.85,1.8501,1.8509,1.8527,1.854,1.8557,1.8603,1.8603,1.8625,1.8632,1.8638,1.8643,1.8666,1.8675,1.8577,1.8577,1.8577,0,0,1.8457,1.846,1.8475,1.8497,1.8502,1.8525,1.849,1.8516,1.8532,1.8504,1.8537,1.8538,1.8546,1.8586,1.8604,1.8589,1.867,1.8644,1.8648,1.865,1.8671,1.868,1.8688,1.858,1.8579,1.8579,0,0,1.8522,1.8528,1.856,1.8566,1.8575,1.857,1.8578,1.8582,1.8581,1.8614,1.8593,1.8611,1.8644,1.865,1.8658,1.8723,1.8706,1.873,1.8767,1.879,1.8797,1.8804,1.8826,1.8834,1.8734,1.8735,1.8735,0,1.8558,1.8592,1.8579,1.8606,1.8615,1.859,1.8622,1.8629,1.8642,1.8649,1.8632,1.8671,1.8675,1.8716,1.8731,1.8739,1.8746,1.8728,1.8797,1.8804,1.881,1.8831,1.8839,1.8737,1.8737,1.8737,1.8736,0,1.8635,1.8658,1.8683,1.8696,1.8709,1.8738,1.8729,1.8742,1.8731,1.8728,1.8761,1.8764,1.8781,1.879,1.878,1.8829,1.8819,1.88,1.8769,1.8822,1.8841,1.8849,1.8741,1.874,1.8739,1.8739,0,0,1.8728,1.8732,1.8741,1.8746,1.8753,1.877,1.8798,1.8814,1.8825,1.8835,1.8857,1.8884,1.8866,1.8875,1.8865,1.8884,1.8934,1.8863,1.8863,1.8875,1.8986,1.9,1.9009,1.8923,1.8925,1.8926,1.8985,0,1.8791,1.8839,1.8827,1.8873,1.8894,1.887,1.8893,1.8899,1.8896,1.8913,1.8909,1.8928,1.8904,1.8909,1.8927,1.8924,1.8956,1.892,1.8942,1.8943,1.8939,1.9019,1.9034,1.909,1.8993,1.8994,1.8995,0,1.8872,1.8884,1.8933,1.8934,1.8942,1.8964,1.8976,1.8993,1.8998,1.8995,1.9003,1.8989,1.9015,1.8985,1.9019,1.8995,1.9003,1.9003,1.9004,1.9005,1.8971,1.9021,1.9107,1.9115,1.9007,1.9006,1.9005,0,1.8933,1.8962,1.8993,1.8999,1.9002,1.9017,1.9019,1.9023,1.9033,1.9043,1.9049,1.9063,1.9071,1.9082,1.9071,1.905,1.9107,1.9076,1.9103,1.9103,1.9116,1.9115,1.9203,1.9123,1.9123,1.9123,1.9123,0,1.9005,1.9035,1.902,1.904,1.9072,1.9058,1.9091,1.909,1.9093,1.9112,1.9092,1.911,1.9095,1.9111,1.9103,1.9132,1.9136,1.9133,1.913,1.9134,1.9134,1.9138,1.9134,1.9125,1.9125,1.9124,1.9124,0,1.9078,1.907,1.9103,1.9102,1.9103,1.9127,1.9126,1.9143,1.9139,1.9162,1.9166,1.9159,1.9176,1.9167,1.9186,1.918,1.9217,1.921,1.9215,1.9212,1.924,1.9237,1.9333,1.9345,1.9258,1.9259,1.926,0,1.9124,1.9146,1.9148,1.9158,1.9161,1.9179,1.9188,1.9175,1.9185,1.9193,1.9209,1.9225,1.9237,1.9266,1.9261,1.9275,1.9267,1.93,1.9269,1.9271,1.9266,1.9264,1.9265,1.9306,1.9307,1.9308,1.9308,0,1.9206,1.92,1.9214,1.9226,1.9238,1.9247,1.9255,1.9265,1.9251,1.9264,1.9281,1.929,1.9308,1.9323,1.9335,1.9336,1.932,1.9318,1.9325,1.9328,1.933,1.9328,1.923,1.9316,1.9315,1.9314,1.9314,1.9314,1.9265,1.9283,1.9286,1.9302,1.9306,1.9313,1.9329,1.9326,1.934,1.9353,1.9345,1.9365,1.9368,1.9382,1.9385,1.94,1.9387,1.9397,1.9399,1.9402,1.9405,1.9328,1.9402,1.9402,1.9402,1.9402,1.9401,0,1.9345,1.9345,1.936,1.937,1.9382,1.9366,1.9373,1.9384,1.9402,1.9406,1.9418,1.9437,1.9452,1.9448,1.9461,1.9474,1.9466,1.9477,1.9476,1.9476,1.9417,1.9409,1.9483,1.9483,1.9483,1.9483,1.9483,1.9483,1.9387,1.9416,1.941,1.944,1.944,1.9459,1.9465,1.9471,1.9474,1.9496,1.9508,1.9505,1.9506,1.9519,1.9531,1.9529,1.9534,1.9548,1.9544,1.9488,1.948,1.9473,1.9465,1.9549,1.955,1.9601,1.9602,1.9602]},{"header":{"parameterUnit":"m.s-1","parameterCategory":1,"la1":30.2991,"la2":30.254,"lo1":-89.0895,"lo2":-89.0444,"dy":0.0017,"dx":0.0017,"nx":28,"ny":28,"refTime":"2023-08-03T09:00:00:Z","depth":0,"parameterNumber":3,"parameterNumberName":"V-component_of_WINDS"},"data":[0,0,0,0,0,0,0,0,0,0,0,0,0,0,0,0,0,0,0,0,0,0,0,0,0,0,0,0,0,0,0,0,0,0,0,0,0,0,0,0,0,0,0,0,0,0,0,0,0,0,0,0,0,0,0,0,0,0,0.5326,0.5326,0,0.528,0.5279,0.5279,0.5214,0.5213,0.5212,0.5211,0.5164,0.5164,0.5164,0,0,0,0,0,0,0,0,0,0,0,0,0,0.5359,0.5359,0.5327,0.5326,0.5325,0.528,0.5279,0.5279,0.5215,0.5213,0.5212,0.5211,0.5164,0.5164,0.5164,0,0,0,0,0,0,0,0,0,0,0,0,0,0.5332,0.5359,0.5327,0.5288,0.5284,0.528,0.5279,0.5279,0.5215,0.5213,0.5212,0.521,0.5164,0.5164,0.5164,0.5194,0,0,0.5163,0.5162,0,0,0,0,0,0,0,0,0.5334,0.5331,0.5294,0.529,0.5286,0.5251,0.5274,0.525,0.5215,0.5241,0.5211,0.5209,0.5195,0.5192,0.5186,0.5192,0.519,0.5163,0.5162,0.5162,0.5162,0,0,0,0,0,0,0,0.5336,0.5333,0.5308,0.5294,0.5289,0.5273,0.5267,0.5269,0.5228,0.5239,0.5234,0.5229,0.5192,0.5187,0.5185,0.519,0.5163,0.5162,0.5162,0.5162,0.5216,0.5218,0,0,0,0,0,0,0.5343,0.5335,0.531,0.5307,0.5306,0.5273,0.5267,0.5264,0.5227,0.522,0.5231,0.5226,0.5188,0.5185,0.5183,0.5215,0.5162,0.5162,0.5162,0.5215,0.5217,0.5218,0,0,0,0,0,0,0.5344,0.5342,0.5311,0.5319,0.5314,0.5274,0.5272,0.5264,0.5259,0.5221,0.5214,0.5233,0.5187,0.5183,0.5192,0.5213,0.5162,0.5161,0.5213,0.5215,0.5217,0.5281,0,0,0,0,0,0,0.5346,0.5343,0.5354,0.532,0.5314,0.5321,0.5273,0.5264,0.5258,0.5252,0.5222,0.5215,0.5185,0.5192,0.5191,0.5212,0.5161,0.5211,0.5214,0.5217,0.5277,0.5286,0.5293,0,0,0,0,0,0.5347,0.5374,0.5355,0.5352,0.5328,0.5323,0.5319,0.5284,0.5261,0.5271,0.5247,0.5216,0.5211,0.5194,0.5192,0.5212,0.5209,0.5213,0.5216,0.5274,0.5284,0.5293,0,0,0,0,0,0,0.5413,0.5369,0.5347,0.5365,0.5348,0.5312,0.5325,0.5297,0.5287,0.5281,0.5239,0.5232,0.5246,0.523,0.5212,0.5239,0.5205,0.5209,0.5249,0.5259,0.5267,0.527,0.5161,0,0,0,0,0,0.5429,0.5428,0.5391,0.541,0.5402,0.5365,0.5362,0.5336,0.5317,0.531,0.5286,0.5269,0.5263,0.526,0.5253,0.5274,0.5266,0.5288,0.5295,0.5302,0.5306,0.5315,0.5323,0.523,0.523,0.523,0,0,0.5463,0.5439,0.5442,0.5422,0.5406,0.5406,0.536,0.5362,0.5361,0.531,0.5316,0.5298,0.5275,0.529,0.5296,0.5277,0.5329,0.5307,0.5313,0.5312,0.5319,0.5328,0.5336,0.5233,0.5233,0.5232,0,0,0.5525,0.5507,0.552,0.5505,0.5481,0.5456,0.5459,0.5427,0.5413,0.5418,0.5379,0.5377,0.5369,0.5354,0.5345,0.54,0.5371,0.5399,0.5441,0.545,0.5457,0.5463,0.5482,0.5489,0.5403,0.5403,0.5403,0,0.557,0.5569,0.5531,0.5535,0.5527,0.548,0.5493,0.548,0.5455,0.545,0.543,0.5417,0.5399,0.5409,0.5422,0.5417,0.5419,0.5402,0.5459,0.5465,0.547,0.5487,0.5495,0.5406,0.5406,0.5406,0.5405,0,0.5625,0.5625,0.5638,0.5615,0.5608,0.5617,0.558,0.5578,0.5553,0.553,0.5535,0.5511,0.5497,0.5498,0.5474,0.5504,0.5493,0.5467,0.5432,0.5483,0.5499,0.5505,0.5411,0.541,0.5409,0.5408,0,0,0.5728,0.5682,0.5688,0.5676,0.5645,0.5644,0.565,0.5636,0.5635,0.5619,0.5623,0.5616,0.559,0.5581,0.5554,0.5562,0.5606,0.5534,0.5533,0.5548,0.5636,0.5656,0.5665,0.5586,0.5587,0.5588,0.5638,0,0.5783,0.5791,0.5756,0.5773,0.5772,0.5726,0.5731,0.5713,0.5691,0.5686,0.5662,0.5657,0.5625,0.5619,0.5625,0.5599,0.5623,0.5595,0.5588,0.5589,0.5595,0.5673,0.5694,0.5743,0.5644,0.5645,0.5646,0,0.5849,0.5836,0.5853,0.582,0.5818,0.5823,0.5807,0.5804,0.5781,0.5765,0.5753,0.5722,0.5725,0.5691,0.5694,0.5676,0.5671,0.5658,0.5659,0.5657,0.562,0.5672,0.5757,0.5764,0.5655,0.5654,0.5654,0,0.5922,0.5908,0.5916,0.5907,0.5869,0.5874,0.5858,0.5834,0.5828,0.5814,0.5809,0.5796,0.5788,0.5778,0.5744,0.5723,0.575,0.5714,0.5736,0.5737,0.5744,0.5744,0.5829,0.5742,0.5742,0.5742,0.5741,0,0.5987,0.5999,0.5947,0.5952,0.5964,0.5923,0.5935,0.5915,0.5894,0.5894,0.5854,0.5854,0.5809,0.5804,0.5778,0.5783,0.578,0.5767,0.5759,0.577,0.5772,0.5766,0.5762,0.5743,0.5743,0.5743,0.5742,0,0.607,0.6036,0.6041,0.6005,0.5996,0.6006,0.5974,0.5976,0.5952,0.5952,0.5949,0.5911,0.5903,0.5867,0.5851,0.5833,0.5848,0.5834,0.5855,0.585,0.5874,0.5872,0.5958,0.5967,0.5875,0.5876,0.5877,0,0.6113,0.6121,0.6085,0.6082,0.6068,0.6063,0.6056,0.6017,0.6011,0.5985,0.5991,0.5979,0.5968,0.5957,0.5928,0.5915,0.59,0.593,0.5897,0.5907,0.5899,0.5899,0.5899,0.5938,0.5939,0.594,0.5941,0,0.6194,0.6177,0.6168,0.6154,0.6146,0.6133,0.6117,0.6116,0.6072,0.6067,0.6059,0.605,0.6033,0.6022,0.6004,0.5987,0.5956,0.5951,0.5955,0.5966,0.5978,0.5971,0.5874,0.595,0.5949,0.5948,0.5948,0.5947,0.6258,0.6263,0.6238,0.6229,0.6213,0.6199,0.6199,0.6174,0.6166,0.6149,0.6125,0.6119,0.6095,0.6068,0.6053,0.6047,0.603,0.6037,0.6038,0.604,0.6045,0.598,0.6044,0.6044,0.6043,0.6043,0.6043,0,0.6336,0.6318,0.631,0.6289,0.6282,0.6254,0.6234,0.623,0.6225,0.6206,0.6195,0.6184,0.6173,0.6142,0.6127,0.6129,0.6114,0.6126,0.6125,0.6122,0.6062,0.6059,0.6138,0.6138,0.6138,0.6138,0.6138,0.6138,0.6376,0.6382,0.6361,0.6358,0.6339,0.6333,0.6324,0.631,0.6294,0.6284,0.6274,0.6254,0.6229,0.6212,0.62,0.6191,0.6188,0.6204,0.6191,0.6135,0.6126,0.6118,0.6115,0.6204,0.6204,0.6251,0.6251,0.6251]}]]